Time,TemperatureF,DewpointF,PressureIn,WindDirection,WindDirectionDegrees,WindSpeedMPH,WindSpeedGustMPH,Humidity,HourlyPrecipIn,Conditions,Clouds,dailyrainin,SoftwareType,DateUTC
2013-04-20 00:01:00,47.9,44.2,30.18,SSE,148,0.0,0.0,87,0.00,,---,0.00,VWS V14.01,2013-04-20 07:01:00,
2013-04-20 00:06:00,47.9,44.2,30.18,SSE,163,0.0,0.0,87,0.00,,---,0.00,VWS V14.01,2013-04-20 07:06:00,
2013-04-20 00:11:00,47.7,44.0,30.18,SSE,159,0.0,0.0,87,0.00,,---,0.00,VWS V14.01,2013-04-20 07:11:00,
2013-04-20 00:16:00,47.7,44.0,30.18,SSW,202,0.0,0.0,87,0.00,,---,0.00,VWS V14.01,2013-04-20 07:16:00,
2013-04-20 00:21:00,47.7,44.0,30.18,South,185,0.0,0.0,87,0.00,,---,0.00,VWS V14.01,2013-04-20 07:21:00,
2013-04-20 00:26:00,47.7,44.0,30.18,South,173,0.0,0.0,87,0.00,,---,0.00,VWS V14.01,2013-04-20 07:26:00,
2013-04-20 00:32:00,47.7,44.0,30.18,ESE,110,0.0,0.0,87,0.00,,---,0.00,VWS V14.01,2013-04-20 07:32:00,
2013-04-20 00:37:00,47.7,44.0,30.18,South,174,0.0,0.0,87,0.00,,---,0.00,VWS V14.01,2013-04-20 07:37:00,
2013-04-20 00:42:00,47.7,44.0,30.18,SSE,163,0.0,0.0,87,0.00,,---,0.00,VWS V14.01,2013-04-20 07:42:00,
2013-04-20 00:47:00,47.7,43.7,30.18,SSE,152,0.0,0.0,86,0.00,,---,0.00,VWS V14.01,2013-04-20 07:47:00,
2013-04-20 00:52:00,47.7,43.7,30.19,SSW,193,0.0,0.0,86,0.00,,---,0.00,VWS V14.01,2013-04-20 07:52:00,
2013-04-20 00:57:00,47.7,43.7,30.19,SE,140,0.0,0.0,86,0.00,,---,0.00,VWS V14.01,2013-04-20 07:57:00,
2013-04-20 01:02:00,47.7,43.7,30.19,SSE,154,0.0,0.0,86,0.00,,---,0.00,VWS V14.01,2013-04-20 08:02:00,
2013-04-20 01:07:00,47.7,43.7,30.19,SSE,164,0.0,0.0,86,0.00,,---,0.00,VWS V14.01,2013-04-20 08:07:00,
2013-04-20 01:12:00,47.7,43.7,30.19,SSE,164,0.0,0.0,86,0.00,,---,0.00,VWS V14.01,2013-04-20 08:12:00,
2013-04-20 01:17:00,47.7,43.7,30.19,SE,128,0.0,0.0,86,0.00,,---,0.00,VWS V14.01,2013-04-20 08:17:00,
2013-04-20 01:22:00,47.7,43.7,30.19,SW,221,0.0,0.0,86,0.00,,---,0.00,VWS V14.01,2013-04-20 08:22:00,
2013-04-20 01:27:00,47.7,43.4,30.19,South,183,0.0,0.0,85,0.00,,---,0.00,VWS V14.01,2013-04-20 08:27:00,
2013-04-20 01:32:00,47.7,43.4,30.19,SE,135,0.0,0.0,85,0.00,,---,0.00,VWS V14.01,2013-04-20 08:32:00,
2013-04-20 01:37:00,47.7,43.4,30.19,SSW,211,0.0,0.0,85,0.00,,---,0.00,VWS V14.01,2013-04-20 08:37:00,
2013-04-20 01:42:00,47.7,43.4,30.19,SE,128,0.0,0.0,85,0.00,,---,0.00,VWS V14.01,2013-04-20 08:42:00,
2013-04-20 01:47:00,47.7,43.4,30.19,South,180,0.0,0.0,85,0.00,,---,0.00,VWS V14.01,2013-04-20 08:47:00,
2013-04-20 01:52:00,47.7,43.4,30.19,SSE,155,0.0,0.0,85,0.00,,---,0.00,VWS V14.01,2013-04-20 08:52:00,
2013-04-20 01:57:00,47.7,43.4,30.18,SSE,150,0.0,0.0,85,0.00,,---,0.00,VWS V14.01,2013-04-20 08:57:00,
2013-04-20 02:02:00,47.7,43.4,30.18,SSW,193,0.0,0.0,85,0.00,,---,0.00,VWS V14.01,2013-04-20 09:02:00,
2013-04-20 02:07:00,47.7,43.4,30.18,SE,145,0.0,0.0,85,0.00,,---,0.00,VWS V14.01,2013-04-20 09:07:00,
2013-04-20 02:12:00,47.7,43.1,30.18,SE,146,0.0,0.0,84,0.00,,---,0.00,VWS V14.01,2013-04-20 09:12:00,
2013-04-20 02:18:00,47.7,43.1,30.18,SW,228,0.0,0.0,84,0.00,,---,0.00,VWS V14.01,2013-04-20 09:18:00,
2013-04-20 02:23:00,47.7,43.1,30.18,SE,146,0.0,0.0,84,0.00,,---,0.00,VWS V14.01,2013-04-20 09:23:00,
2013-04-20 02:28:00,47.7,43.1,30.18,SSW,210,0.0,0.0,84,0.00,,---,0.00,VWS V14.01,2013-04-20 09:28:00,
2013-04-20 02:33:00,47.6,43.0,30.19,SW,215,0.0,0.0,84,0.00,,---,0.00,VWS V14.01,2013-04-20 09:33:00,
2013-04-20 02:38:00,47.6,43.0,30.19,SSW,198,0.0,0.0,84,0.00,,---,0.00,VWS V14.01,2013-04-20 09:38:00,
2013-04-20 02:43:00,47.6,43.0,30.19,South,188,0.0,0.0,84,0.00,,---,0.00,VWS V14.01,2013-04-20 09:43:00,
2013-04-20 02:48:00,47.6,43.0,30.19,South,182,0.0,0.0,84,0.00,,---,0.00,VWS V14.01,2013-04-20 09:48:00,
2013-04-20 02:53:00,47.4,42.8,30.19,SSE,162,0.0,0.0,84,0.00,,---,0.00,VWS V14.01,2013-04-20 09:53:00,
2013-04-20 02:58:00,47.4,42.8,30.19,SW,214,0.0,0.0,84,0.00,,---,0.00,VWS V14.01,2013-04-20 09:58:00,
2013-04-20 03:03:00,47.3,42.4,30.19,SSW,196,0.0,0.0,83,0.00,,---,0.00,VWS V14.01,2013-04-20 10:03:00,
2013-04-20 03:08:00,47.3,42.4,30.19,South,179,0.0,0.0,83,0.00,,---,0.00,VWS V14.01,2013-04-20 10:08:00,
2013-04-20 03:13:00,47.3,42.4,30.18,South,171,0.0,0.0,83,0.00,,---,0.00,VWS V14.01,2013-04-20 10:13:00,
2013-04-20 03:18:00,47.3,42.4,30.18,South,190,0.0,0.0,83,0.00,,---,0.00,VWS V14.01,2013-04-20 10:18:00,
2013-04-20 03:23:00,47.3,42.4,30.18,SSW,200,0.0,0.0,83,0.00,,---,0.00,VWS V14.01,2013-04-20 10:23:00,
2013-04-20 03:28:00,47.3,42.4,30.19,South,175,0.0,0.0,83,0.00,,---,0.00,VWS V14.01,2013-04-20 10:28:00,
2013-04-20 03:33:00,47.3,42.4,30.19,SSW,205,0.0,0.0,83,0.00,,---,0.00,VWS V14.01,2013-04-20 10:33:00,
2013-04-20 03:38:00,47.3,42.4,30.19,SW,236,0.0,0.0,83,0.00,,---,0.00,VWS V14.01,2013-04-20 10:38:00,
2013-04-20 03:43:00,47.1,42.2,30.19,SW,227,0.0,0.0,83,0.00,,---,0.00,VWS V14.01,2013-04-20 10:43:00,
2013-04-20 03:48:00,47.1,42.2,30.19,South,186,0.0,0.0,83,0.00,,---,0.00,VWS V14.01,2013-04-20 10:48:00,
2013-04-20 03:53:00,47.1,42.2,30.19,South,173,0.0,0.0,83,0.00,,---,0.00,VWS V14.01,2013-04-20 10:53:00,
2013-04-20 03:58:00,47.1,42.2,30.19,SSE,152,0.0,0.0,83,0.00,,---,0.00,VWS V14.01,2013-04-20 10:58:00,
2013-04-20 04:04:00,47.0,42.1,30.20,WSW,240,0.0,0.0,83,0.00,,---,0.00,VWS V14.01,2013-04-20 11:04:00,
2013-04-20 04:09:00,47.0,42.1,30.20,SSW,204,0.0,0.0,83,0.00,,---,0.00,VWS V14.01,2013-04-20 11:09:00,
2013-04-20 04:14:00,47.0,41.8,30.20,SSW,207,0.0,0.0,82,0.00,,---,0.00,VWS V14.01,2013-04-20 11:14:00,
2013-04-20 04:19:00,47.0,41.8,30.20,SSW,211,0.0,0.0,82,0.00,,---,0.00,VWS V14.01,2013-04-20 11:19:00,
2013-04-20 04:24:00,47.0,41.8,30.20,SE,130,0.0,0.0,82,0.00,,---,0.00,VWS V14.01,2013-04-20 11:24:00,
2013-04-20 04:29:00,46.8,41.6,30.20,SSE,152,0.0,0.0,82,0.00,,---,0.00,VWS V14.01,2013-04-20 11:29:00,
2013-04-20 04:34:00,46.8,41.6,30.20,SSE,164,0.0,0.0,82,0.00,,---,0.00,VWS V14.01,2013-04-20 11:34:00,
2013-04-20 04:39:00,46.8,41.6,30.20,SSE,150,0.0,0.0,82,0.00,,---,0.00,VWS V14.01,2013-04-20 11:39:00,
2013-04-20 04:44:00,46.8,41.6,30.20,South,188,0.0,0.0,82,0.00,,---,0.00,VWS V14.01,2013-04-20 11:44:00,
2013-04-20 04:49:00,46.8,41.6,30.20,South,184,0.0,0.0,82,0.00,,---,0.00,VWS V14.01,2013-04-20 11:49:00,
2013-04-20 04:54:00,46.8,41.6,30.21,South,181,0.0,0.0,82,0.00,,---,0.00,VWS V14.01,2013-04-20 11:54:00,
2013-04-20 04:59:00,46.8,41.6,30.21,South,169,0.0,0.0,82,0.00,,---,0.00,VWS V14.01,2013-04-20 11:59:00,
2013-04-20 05:04:00,46.8,41.6,30.20,SE,128,0.0,0.0,82,0.00,,---,0.00,VWS V14.01,2013-04-20 12:04:00,
2013-04-20 05:09:00,46.8,41.6,30.20,South,175,0.0,0.0,82,0.00,,---,0.00,VWS V14.01,2013-04-20 12:09:00,
2013-04-20 05:14:00,46.8,41.6,30.20,SW,236,0.0,0.0,82,0.00,,---,0.00,VWS V14.01,2013-04-20 12:14:00,
2013-04-20 05:19:00,46.8,41.6,30.21,SSW,201,0.0,0.0,82,0.00,,---,0.00,VWS V14.01,2013-04-20 12:19:00,
2013-04-20 05:24:00,46.8,41.6,30.21,SSE,155,0.0,0.0,82,0.00,,---,0.00,VWS V14.01,2013-04-20 12:24:00,
2013-04-20 05:29:00,46.7,41.2,30.21,SSW,194,0.0,0.0,81,0.00,,---,0.00,VWS V14.01,2013-04-20 12:29:00,
2013-04-20 05:34:00,46.7,41.2,30.21,SE,143,0.0,0.0,81,0.00,,---,0.00,VWS V14.01,2013-04-20 12:34:00,
2013-04-20 05:39:00,46.7,41.2,30.21,South,175,0.0,0.0,81,0.00,,---,0.00,VWS V14.01,2013-04-20 12:39:00,
2013-04-20 05:45:00,46.7,41.2,30.21,SSE,154,0.0,0.0,81,0.00,,---,0.00,VWS V14.01,2013-04-20 12:45:00,
2013-04-20 05:50:00,46.7,41.2,30.22,South,183,0.0,0.0,81,0.00,,---,0.00,VWS V14.01,2013-04-20 12:50:00,
2013-04-20 05:55:00,46.7,41.2,30.22,South,183,0.0,0.0,81,0.00,,---,0.00,VWS V14.01,2013-04-20 12:55:00,
2013-04-20 06:00:00,46.5,41.0,30.22,SSE,164,0.0,0.0,81,0.00,,---,0.00,VWS V14.01,2013-04-20 13:00:00,
2013-04-20 06:05:00,46.5,41.0,30.22,SSE,164,0.0,0.0,81,0.00,,---,0.00,VWS V14.01,2013-04-20 13:05:00,
2013-04-20 06:10:00,46.5,41.0,30.22,SSE,161,0.0,0.0,81,0.00,,---,0.00,VWS V14.01,2013-04-20 13:10:00,
2013-04-20 06:15:00,46.5,41.0,30.22,South,179,0.0,0.0,81,0.00,,---,0.00,VWS V14.01,2013-04-20 13:15:00,
2013-04-20 06:20:00,46.5,41.0,30.22,SW,219,0.0,0.0,81,0.00,,---,0.00,VWS V14.01,2013-04-20 13:20:00,
2013-04-20 06:25:00,46.5,41.0,30.22,SSE,161,0.0,0.0,81,0.00,,---,0.00,VWS V14.01,2013-04-20 13:25:00,
2013-04-20 06:30:00,46.5,41.0,30.22,SSE,163,0.0,0.0,81,0.00,,---,0.00,VWS V14.01,2013-04-20 13:30:00,
2013-04-20 06:35:00,46.5,41.0,30.22,South,187,0.0,0.0,81,0.00,,---,0.00,VWS V14.01,2013-04-20 13:35:00,
2013-04-20 06:40:00,46.5,41.0,30.22,SW,225,0.0,0.0,81,0.00,,---,0.00,VWS V14.01,2013-04-20 13:40:00,
2013-04-20 06:45:00,46.5,41.0,30.22,SSW,192,0.0,0.0,81,0.00,,---,0.00,VWS V14.01,2013-04-20 13:45:00,
2013-04-20 06:50:00,46.5,41.0,30.22,South,180,0.0,0.0,81,0.00,,---,0.00,VWS V14.01,2013-04-20 13:50:00,
2013-04-20 06:55:00,46.5,41.0,30.22,SSW,198,0.0,0.0,81,0.00,,---,0.00,VWS V14.01,2013-04-20 13:55:00,
2013-04-20 07:00:00,46.5,41.0,30.22,South,188,0.0,0.0,81,0.00,,---,0.00,VWS V14.01,2013-04-20 14:00:00,
2013-04-20 07:05:00,46.5,41.0,30.22,South,175,0.0,0.0,81,0.00,,---,0.00,VWS V14.01,2013-04-20 14:05:00,
2013-04-20 07:11:00,46.5,41.0,30.22,South,179,0.0,0.0,81,0.00,,---,0.00,VWS V14.01,2013-04-20 14:11:00,
2013-04-20 07:16:00,46.5,41.0,30.22,South,184,0.0,0.0,81,0.00,,---,0.00,VWS V14.01,2013-04-20 14:16:00,
2013-04-20 07:21:00,46.5,41.0,30.22,SSW,192,0.0,0.0,81,0.00,,---,0.00,VWS V14.01,2013-04-20 14:21:00,
2013-04-20 07:26:00,46.5,41.0,30.22,South,177,0.0,0.0,81,0.00,,---,0.00,VWS V14.01,2013-04-20 14:26:00,
2013-04-20 07:31:00,46.7,41.2,30.22,ESE,123,0.0,0.0,81,0.00,,---,0.00,VWS V14.01,2013-04-20 14:31:00,
2013-04-20 07:36:00,46.7,41.2,30.22,South,189,0.0,0.0,81,0.00,,---,0.00,VWS V14.01,2013-04-20 14:36:00,
2013-04-20 07:41:00,46.7,41.2,30.23,SSE,163,0.0,0.0,81,0.00,,---,0.00,VWS V14.01,2013-04-20 14:41:00,
2013-04-20 07:46:00,46.7,41.2,30.23,SSW,196,0.0,0.0,81,0.00,,---,0.00,VWS V14.01,2013-04-20 14:46:00,
2013-04-20 07:51:00,46.7,40.9,30.23,SSW,204,0.0,0.0,80,0.00,,---,0.00,VWS V14.01,2013-04-20 14:51:00,
2013-04-20 07:56:00,46.7,40.9,30.23,South,183,0.0,0.0,80,0.00,,---,0.00,VWS V14.01,2013-04-20 14:56:00,
2013-04-20 08:01:00,46.7,40.9,30.23,South,190,0.0,0.0,80,0.00,,---,0.00,VWS V14.01,2013-04-20 15:01:00,
2013-04-20 08:06:00,46.7,40.9,30.23,SSW,203,0.0,0.0,80,0.00,,---,0.00,VWS V14.01,2013-04-20 15:06:00,
2013-04-20 08:11:00,46.8,41.0,30.23,South,184,0.0,0.0,80,0.00,,---,0.00,VWS V14.01,2013-04-20 15:11:00,
2013-04-20 08:16:00,46.8,41.0,30.23,SW,231,0.0,0.0,80,0.00,,---,0.00,VWS V14.01,2013-04-20 15:16:00,
2013-04-20 08:21:00,46.8,41.0,30.23,SW,223,0.0,0.0,80,0.00,,---,0.00,VWS V14.01,2013-04-20 15:21:00,
2013-04-20 08:26:00,46.8,41.0,30.23,SW,229,0.0,0.0,80,0.00,,---,0.00,VWS V14.01,2013-04-20 15:26:00,
2013-04-20 08:31:00,46.8,41.0,30.23,SW,218,0.0,0.0,80,0.00,,---,0.00,VWS V14.01,2013-04-20 15:31:00,
2013-04-20 08:36:00,47.0,41.2,30.23,SW,214,0.0,0.0,80,0.00,,---,0.00,VWS V14.01,2013-04-20 15:36:00,
2013-04-20 08:41:00,47.0,41.2,30.24,SSE,163,0.0,0.0,80,0.00,,---,0.00,VWS V14.01,2013-04-20 15:41:00,
2013-04-20 08:46:00,47.1,41.3,30.23,SSW,213,0.0,0.0,80,0.00,,---,0.00,VWS V14.01,2013-04-20 15:46:00,
2013-04-20 08:52:00,47.1,41.3,30.23,SSW,211,0.0,0.0,80,0.00,,---,0.00,VWS V14.01,2013-04-20 15:52:00,
2013-04-20 08:57:00,47.3,41.5,30.24,SW,231,0.0,0.0,80,0.00,,---,0.00,VWS V14.01,2013-04-20 15:57:00,
2013-04-20 09:02:00,47.1,40.9,30.24,SSW,205,0.0,0.0,79,0.00,,---,0.00,VWS V14.01,2013-04-20 16:02:00,
2013-04-20 09:07:00,47.1,40.9,30.24,WSW,258,0.0,0.0,79,0.00,,---,0.00,VWS V14.01,2013-04-20 16:07:00,
2013-04-20 09:12:00,47.3,41.1,30.24,WSW,248,0.0,0.0,79,0.00,,---,0.00,VWS V14.01,2013-04-20 16:12:00,
2013-04-20 09:17:00,47.3,41.1,30.24,SSW,193,0.0,0.0,79,0.00,,---,0.00,VWS V14.01,2013-04-20 16:17:00,
2013-04-20 09:22:00,47.3,41.1,30.24,SW,214,0.0,0.0,79,0.00,,---,0.00,VWS V14.01,2013-04-20 16:22:00,
2013-04-20 09:27:00,47.4,41.2,30.24,WSW,254,0.0,0.0,79,0.00,,---,0.00,VWS V14.01,2013-04-20 16:27:00,
2013-04-20 09:32:00,47.4,41.2,30.24,SSW,213,0.0,0.0,79,0.00,,---,0.00,VWS V14.01,2013-04-20 16:32:00,
2013-04-20 09:37:00,47.6,41.1,30.24,SW,229,0.0,0.0,78,0.00,,---,0.00,VWS V14.01,2013-04-20 16:37:00,
2013-04-20 09:42:00,47.6,41.1,30.24,SW,220,0.0,0.0,78,0.00,,---,0.00,VWS V14.01,2013-04-20 16:42:00,
2013-04-20 09:47:00,47.7,41.2,30.24,SSW,213,0.0,0.0,78,0.00,,---,0.00,VWS V14.01,2013-04-20 16:47:00,
2013-04-20 09:52:00,47.9,41.4,30.24,SW,214,0.0,0.0,78,0.00,,---,0.00,VWS V14.01,2013-04-20 16:52:00,
2013-04-20 09:57:00,48.0,41.2,30.24,SW,235,0.0,0.0,77,0.00,,---,0.00,VWS V14.01,2013-04-20 16:57:00,
2013-04-20 10:02:00,48.0,41.2,30.24,SSE,167,0.0,0.0,77,0.00,,---,0.00,VWS V14.01,2013-04-20 17:02:00,
2013-04-20 10:07:00,48.2,41.3,30.24,SSW,196,0.0,0.0,77,0.00,,---,0.00,VWS V14.01,2013-04-20 17:07:00,
2013-04-20 10:12:00,48.3,41.4,30.25,SSE,167,0.0,0.0,77,0.00,,---,0.00,VWS V14.01,2013-04-20 17:12:00,
2013-04-20 10:17:00,48.5,41.6,30.25,SSW,212,0.0,0.0,77,0.00,,---,0.00,VWS V14.01,2013-04-20 17:17:00,
2013-04-20 10:22:00,48.6,41.4,30.25,SW,223,0.0,0.0,76,0.00,,---,0.00,VWS V14.01,2013-04-20 17:22:00,
2013-04-20 10:28:00,48.9,41.7,30.25,WSW,254,0.0,0.0,76,0.00,,---,0.00,VWS V14.01,2013-04-20 17:28:00,
2013-04-20 10:33:00,49.1,41.9,30.25,SSW,206,0.0,0.0,76,0.00,,---,0.00,VWS V14.01,2013-04-20 17:33:00,
2013-04-20 10:38:00,49.2,41.6,30.25,SSE,168,0.0,0.0,75,0.00,,---,0.00,VWS V14.01,2013-04-20 17:38:00,
2013-04-20 10:43:00,49.4,41.8,30.25,South,175,0.0,0.0,75,0.00,,---,0.00,VWS V14.01,2013-04-20 17:43:00,
2013-04-20 10:48:00,49.5,41.9,30.25,South,180,0.0,0.0,75,0.00,,---,0.00,VWS V14.01,2013-04-20 17:48:00,
2013-04-20 10:53:00,49.6,42.0,30.25,South,171,0.0,0.0,75,0.00,,---,0.00,VWS V14.01,2013-04-20 17:53:00,
2013-04-20 10:58:00,49.8,41.9,30.25,SW,227,0.0,0.0,74,0.00,,---,0.00,VWS V14.01,2013-04-20 17:58:00,
2013-04-20 11:03:00,49.9,41.6,30.25,WSW,245,0.0,0.0,73,0.00,,---,0.00,VWS V14.01,2013-04-20 18:03:00,
2013-04-20 11:08:00,50.1,41.8,30.25,SSW,199,0.0,0.0,73,0.00,,---,0.00,VWS V14.01,2013-04-20 18:08:00,
2013-04-20 11:13:00,50.1,41.8,30.26,SW,221,0.0,0.0,73,0.00,,---,0.00,VWS V14.01,2013-04-20 18:13:00,
2013-04-20 11:18:00,50.4,42.1,30.26,South,183,0.0,0.0,73,0.00,,---,0.00,VWS V14.01,2013-04-20 18:18:00,
2013-04-20 11:23:00,50.7,42.4,30.26,SE,142,0.0,0.0,73,0.00,,---,0.00,VWS V14.01,2013-04-20 18:23:00,
2013-04-20 11:28:00,50.8,42.1,30.26,SW,229,0.0,0.0,72,0.00,,---,0.00,VWS V14.01,2013-04-20 18:28:00,
2013-04-20 11:33:00,50.7,42.0,30.26,South,169,0.0,0.0,72,0.00,,---,0.00,VWS V14.01,2013-04-20 18:33:00,
2013-04-20 11:38:00,50.7,41.7,30.26,SE,138,0.0,0.0,71,0.00,,---,0.00,VWS V14.01,2013-04-20 18:38:00,
2013-04-20 11:43:00,50.7,41.7,30.26,SSE,152,0.0,0.0,71,0.00,,---,0.00,VWS V14.01,2013-04-20 18:43:00,
2013-04-20 11:48:00,51.0,41.9,30.26,SSW,192,0.0,0.0,71,0.00,,---,0.00,VWS V14.01,2013-04-20 18:48:00,
2013-04-20 11:53:00,51.1,42.0,30.26,SE,134,0.0,0.0,71,0.00,,---,0.00,VWS V14.01,2013-04-20 18:53:00,
2013-04-20 11:58:00,51.1,42.0,30.26,SE,133,0.0,0.0,71,0.00,,---,0.00,VWS V14.01,2013-04-20 18:58:00,
2013-04-20 12:04:00,51.3,41.9,30.26,SE,132,0.0,0.0,70,0.00,,---,0.00,VWS V14.01,2013-04-20 19:04:00,
2013-04-20 12:09:00,51.6,42.2,30.26,SE,133,0.0,0.0,70,0.00,,---,0.00,VWS V14.01,2013-04-20 19:09:00,
2013-04-20 12:14:00,51.7,42.2,30.26,SW,215,0.0,0.0,70,0.00,,---,0.00,VWS V14.01,2013-04-20 19:14:00,
2013-04-20 12:19:00,51.9,42.1,30.26,SW,231,0.0,0.0,69,0.00,,---,0.00,VWS V14.01,2013-04-20 19:19:00,
2013-04-20 12:24:00,52.3,42.1,30.26,SW,215,0.0,0.0,68,0.00,,---,0.00,VWS V14.01,2013-04-20 19:24:00,
2013-04-20 12:29:00,52.6,42.3,30.26,SSW,192,0.0,0.0,68,0.00,,---,0.00,VWS V14.01,2013-04-20 19:29:00,
2013-04-20 12:34:00,52.9,42.3,30.25,SE,143,0.0,0.0,67,0.00,,---,0.00,VWS V14.01,2013-04-20 19:34:00,
2013-04-20 12:39:00,53.3,42.2,30.25,SE,128,0.0,0.0,66,0.00,,---,0.00,VWS V14.01,2013-04-20 19:39:00,
2013-04-20 12:44:00,53.9,42.4,30.25,SE,140,0.0,0.0,65,0.00,,---,0.00,VWS V14.01,2013-04-20 19:44:00,
2013-04-20 12:49:00,54.2,41.9,30.25,SSW,202,0.0,0.0,63,0.00,,---,0.00,VWS V14.01,2013-04-20 19:49:00,
2013-04-20 12:54:00,54.5,42.6,30.25,South,185,0.0,0.0,64,0.00,,---,0.00,VWS V14.01,2013-04-20 19:54:00,
2013-04-20 12:59:00,54.7,42.4,30.25,NW,312,0.0,0.0,63,0.00,,---,0.00,VWS V14.01,2013-04-20 19:59:00,
2013-04-20 13:04:00,54.8,42.0,30.25,SSE,147,0.0,0.0,62,0.00,,---,0.00,VWS V14.01,2013-04-20 20:04:00,
2013-04-20 13:09:00,54.7,42.0,30.25,WSW,244,0.0,0.0,62,0.00,,---,0.00,VWS V14.01,2013-04-20 20:09:00,
2013-04-20 13:14:00,54.7,42.0,30.24,SW,223,0.0,0.0,62,0.00,,---,0.00,VWS V14.01,2013-04-20 20:14:00,
2013-04-20 13:19:00,54.7,42.0,30.24,South,187,0.0,0.0,62,0.00,,---,0.00,VWS V14.01,2013-04-20 20:19:00,
2013-04-20 13:24:00,54.2,41.5,30.24,WSW,237,0.0,0.0,62,0.00,,---,0.00,VWS V14.01,2013-04-20 20:24:00,
2013-04-20 13:29:00,54.2,41.9,30.24,SSW,211,0.0,0.0,63,0.00,,---,0.00,VWS V14.01,2013-04-20 20:29:00,
2013-04-20 13:34:00,53.9,41.2,30.24,SSW,211,0.0,0.0,62,0.00,,---,0.00,VWS V14.01,2013-04-20 20:34:00,
2013-04-20 13:40:00,54.1,41.8,30.24,SW,221,0.0,0.0,63,0.00,,---,0.00,VWS V14.01,2013-04-20 20:40:00,
2013-04-20 13:45:00,54.1,41.8,30.24,SW,215,0.0,0.0,63,0.00,,---,0.00,VWS V14.01,2013-04-20 20:45:00,
2013-04-20 13:50:00,54.1,41.4,30.24,WSW,243,0.0,0.0,62,0.00,,---,0.00,VWS V14.01,2013-04-20 20:50:00,
2013-04-20 13:55:00,54.4,41.7,30.24,SSE,167,0.0,0.0,62,0.00,,---,0.00,VWS V14.01,2013-04-20 20:55:00,
2013-04-20 14:00:00,54.7,41.5,30.24,SE,132,0.0,0.0,61,0.00,,---,0.00,VWS V14.01,2013-04-20 21:00:00,
2013-04-20 14:05:00,54.8,41.6,30.24,West,279,0.0,0.0,61,0.00,,---,0.00,VWS V14.01,2013-04-20 21:05:00,
2013-04-20 14:10:00,55.0,41.4,30.24,South,180,0.0,0.0,60,0.00,,---,0.00,VWS V14.01,2013-04-20 21:10:00,
2013-04-20 14:15:00,55.0,41.0,30.23,SW,224,0.0,0.0,59,0.00,,---,0.00,VWS V14.01,2013-04-20 21:15:00,
2013-04-20 14:20:00,55.1,41.0,30.24,South,169,0.0,0.0,59,0.00,,---,0.00,VWS V14.01,2013-04-20 21:20:00,
2013-04-20 14:25:00,55.1,41.0,30.23,SW,221,0.0,0.0,59,0.00,,---,0.00,VWS V14.01,2013-04-20 21:25:00,
2013-04-20 14:30:00,55.4,40.9,30.23,WSW,247,0.0,0.0,58,0.00,,---,0.00,VWS V14.01,2013-04-20 21:30:00,
2013-04-20 14:35:00,55.6,41.1,30.23,South,179,0.0,0.0,58,0.00,,---,0.00,VWS V14.01,2013-04-20 21:35:00,
2013-04-20 14:40:00,55.7,41.2,30.23,SSW,211,0.0,0.0,58,0.00,,---,0.00,VWS V14.01,2013-04-20 21:40:00,
2013-04-20 14:45:00,55.9,40.9,30.23,West,263,0.0,0.0,57,0.00,,---,0.00,VWS V14.01,2013-04-20 21:45:00,
2013-04-20 14:50:00,55.7,40.7,30.23,SSW,209,0.0,0.0,57,0.00,,---,0.00,VWS V14.01,2013-04-20 21:50:00,
2013-04-20 14:55:00,55.9,41.3,30.23,South,186,0.0,0.0,58,0.00,,---,0.00,VWS V14.01,2013-04-20 21:55:00,
2013-04-20 15:00:00,55.6,41.5,30.23,SSE,159,0.0,0.0,59,0.00,,---,0.00,VWS V14.01,2013-04-20 22:00:00,
2013-04-20 15:05:00,55.6,41.5,30.23,SW,227,0.0,0.0,59,0.00,,---,0.00,VWS V14.01,2013-04-20 22:05:00,
2013-04-20 15:10:00,55.7,42.0,30.23,WSW,252,0.0,0.0,60,0.00,,---,0.00,VWS V14.01,2013-04-20 22:10:00,
2013-04-20 15:15:00,55.6,42.4,30.24,SW,229,0.0,0.0,61,0.00,,---,0.00,VWS V14.01,2013-04-20 22:15:00,
2013-04-20 15:21:00,55.4,41.8,30.24,SSE,167,0.0,0.0,60,0.00,,---,0.00,VWS V14.01,2013-04-20 22:21:00,
2013-04-20 15:26:00,55.6,42.8,30.24,WSW,250,0.0,0.0,62,0.00,,---,0.00,VWS V14.01,2013-04-20 22:26:00,
2013-04-20 15:31:00,55.4,41.3,30.23,SSW,202,0.0,0.0,59,0.00,,---,0.00,VWS V14.01,2013-04-20 22:31:00,
2013-04-20 15:36:00,55.6,42.8,30.23,SW,225,0.0,0.0,62,0.00,,---,0.00,VWS V14.01,2013-04-20 22:36:00,
2013-04-20 15:41:00,55.4,42.6,30.23,SSW,202,0.0,0.0,62,0.00,,---,0.00,VWS V14.01,2013-04-20 22:41:00,
2013-04-20 15:46:00,55.3,43.3,30.23,SW,220,0.0,0.0,64,0.00,,---,0.00,VWS V14.01,2013-04-20 22:46:00,
2013-04-20 15:51:00,55.0,42.7,30.23,WSW,240,0.0,0.0,63,0.00,,---,0.00,VWS V14.01,2013-04-20 22:51:00,
2013-04-20 15:56:00,54.8,42.9,30.23,SW,223,0.0,0.0,64,0.00,,---,0.00,VWS V14.01,2013-04-20 22:56:00,
2013-04-20 16:01:00,54.7,43.2,30.23,SW,220,0.0,0.0,65,0.00,,---,0.00,VWS V14.01,2013-04-20 23:01:00,
2013-04-20 16:06:00,54.5,43.0,30.23,SSE,153,0.0,0.0,65,0.00,,---,0.00,VWS V14.01,2013-04-20 23:06:00,
2013-04-20 16:11:00,54.2,42.7,30.23,SE,134,0.0,0.0,65,0.00,,---,0.00,VWS V14.01,2013-04-20 23:11:00,
2013-04-20 16:16:00,54.1,42.6,30.23,SE,128,0.0,0.0,65,0.00,,---,0.00,VWS V14.01,2013-04-20 23:16:00,
2013-04-20 16:21:00,54.1,43.0,30.23,ESE,122,0.0,0.0,66,0.00,,---,0.00,VWS V14.01,2013-04-20 23:21:00,
2013-04-20 16:26:00,53.9,44.7,30.23,ESE,121,0.0,0.0,71,0.00,,---,0.00,VWS V14.01,2013-04-20 23:26:00,
2013-04-20 16:31:00,53.3,44.9,30.23,ESE,116,0.0,0.0,73,0.00,,---,0.00,VWS V14.01,2013-04-20 23:31:00,
2013-04-20 16:36:00,53.1,45.4,30.23,ESE,109,0.0,0.0,75,0.00,,---,0.00,VWS V14.01,2013-04-20 23:36:00,
2013-04-20 16:41:00,52.9,45.2,30.23,East,93,0.0,0.0,75,0.00,,---,0.00,VWS V14.01,2013-04-20 23:41:00,
2013-04-20 16:46:00,52.8,45.8,30.22,ENE,74,0.0,0.0,77,0.00,,---,0.00,VWS V14.01,2013-04-20 23:46:00,
2013-04-20 16:52:00,52.5,45.5,30.22,ESE,103,0.0,0.0,77,0.00,,---,0.00,VWS V14.01,2013-04-20 23:52:00,
2013-04-20 16:57:00,52.2,45.2,30.22,East,88,0.0,0.0,77,0.00,,---,0.00,VWS V14.01,2013-04-20 23:57:00,
2013-04-20 17:02:00,52.2,45.2,30.22,East,92,0.0,0.0,77,0.00,,---,0.00,VWS V14.01,2013-04-21 00:02:00,
2013-04-20 17:07:00,52.3,45.3,30.22,ESE,110,0.0,0.0,77,0.00,,---,0.00,VWS V14.01,2013-04-21 00:07:00,
2013-04-20 17:12:00,52.2,45.6,30.22,ESE,114,0.0,0.0,78,0.00,,---,0.00,VWS V14.01,2013-04-21 00:12:00,
2013-04-20 17:17:00,52.2,45.6,30.22,ENE,64,0.0,0.0,78,0.00,,---,0.00,VWS V14.01,2013-04-21 00:17:00,
2013-04-20 17:22:00,52.0,45.7,30.22,ENE,76,0.0,0.0,79,0.00,,---,0.00,VWS V14.01,2013-04-21 00:22:00,
2013-04-20 17:27:00,51.9,45.6,30.22,East,81,0.0,0.0,79,0.00,,---,0.00,VWS V14.01,2013-04-21 00:27:00,
2013-04-20 17:32:00,51.7,45.7,30.22,East,92,0.0,0.0,80,0.00,,---,0.00,VWS V14.01,2013-04-21 00:32:00,
2013-04-20 17:37:00,51.6,45.6,30.22,ENE,63,0.0,0.0,80,0.00,,---,0.00,VWS V14.01,2013-04-21 00:37:00,
2013-04-20 17:42:00,51.4,45.8,30.21,East,87,0.0,0.0,81,0.00,,---,0.00,VWS V14.01,2013-04-21 00:42:00,
2013-04-20 17:47:00,51.4,45.8,30.21,East,83,0.0,0.0,81,0.00,,---,0.00,VWS V14.01,2013-04-21 00:47:00,
2013-04-20 17:52:00,51.3,45.7,30.21,NE,41,0.0,0.0,81,0.00,,---,0.00,VWS V14.01,2013-04-21 00:52:00,
2013-04-20 17:57:00,51.1,45.8,30.21,NNE,32,0.0,0.0,82,0.00,,---,0.00,VWS V14.01,2013-04-21 00:57:00,
2013-04-20 18:02:00,51.1,45.8,30.21,NE,40,0.0,0.0,82,0.00,,---,0.00,VWS V14.01,2013-04-21 01:02:00,
2013-04-20 18:07:00,51.3,46.0,30.21,NE,40,0.0,0.0,82,0.00,,---,0.00,VWS V14.01,2013-04-21 01:07:00,
2013-04-20 18:12:00,51.3,46.0,30.21,NE,40,0.0,0.0,82,0.00,,---,0.00,VWS V14.01,2013-04-21 01:12:00,
2013-04-20 18:17:00,51.1,46.1,30.21,NE,51,0.0,0.0,83,0.00,,---,0.00,VWS V14.01,2013-04-21 01:17:00,
2013-04-20 18:23:00,51.1,46.1,30.21,ESE,115,0.0,0.0,83,0.00,,---,0.00,VWS V14.01,2013-04-21 01:23:00,
2013-04-20 18:28:00,51.1,46.4,30.21,NE,48,0.0,0.0,84,0.00,,---,0.00,VWS V14.01,2013-04-21 01:28:00,
2013-04-20 18:33:00,51.1,46.4,30.21,ESE,102,0.0,0.0,84,0.00,,---,0.00,VWS V14.01,2013-04-21 01:33:00,
2013-04-20 18:38:00,51.1,46.4,30.21,ENE,62,0.0,0.0,84,0.00,,---,0.00,VWS V14.01,2013-04-21 01:38:00,
2013-04-20 18:43:00,51.0,46.3,30.21,East,86,0.0,0.0,84,0.00,,---,0.00,VWS V14.01,2013-04-21 01:43:00,
2013-04-20 18:48:00,51.0,46.3,30.21,East,79,0.0,0.0,84,0.00,,---,0.00,VWS V14.01,2013-04-21 01:48:00,
2013-04-20 18:53:00,51.0,46.3,30.21,East,80,0.0,0.0,84,0.00,,---,0.00,VWS V14.01,2013-04-21 01:53:00,
2013-04-20 18:58:00,51.0,46.3,30.21,East,80,0.0,0.0,84,0.00,,---,0.00,VWS V14.01,2013-04-21 01:58:00,
2013-04-20 19:03:00,50.8,46.2,30.21,NE,55,0.0,0.0,84,0.00,,---,0.00,VWS V14.01,2013-04-21 02:03:00,
2013-04-20 19:08:00,50.8,46.2,30.20,East,81,0.0,0.0,84,0.00,,---,0.00,VWS V14.01,2013-04-21 02:08:00,
2013-04-20 19:13:00,50.8,46.2,30.21,East,96,0.0,0.0,84,0.00,,---,0.00,VWS V14.01,2013-04-21 02:13:00,
2013-04-20 19:18:00,50.7,46.0,30.21,NE,48,0.0,0.0,84,0.00,,---,0.00,VWS V14.01,2013-04-21 02:18:00,
2013-04-20 19:23:00,50.5,45.8,30.21,ENE,75,0.0,0.0,84,0.00,,---,0.00,VWS V14.01,2013-04-21 02:23:00,
2013-04-20 19:28:00,50.2,45.6,30.21,ENE,72,0.0,0.0,84,0.00,,---,0.00,VWS V14.01,2013-04-21 02:28:00,
2013-04-20 19:33:00,50.1,45.5,30.21,East,101,0.0,0.0,84,0.00,,---,0.00,VWS V14.01,2013-04-21 02:33:00,
2013-04-20 19:38:00,49.8,45.2,30.22,East,84,0.0,0.0,84,0.00,,---,0.00,VWS V14.01,2013-04-21 02:38:00,
2013-04-20 19:43:00,49.6,45.0,30.22,ESE,106,0.0,0.0,84,0.00,,---,0.00,VWS V14.01,2013-04-21 02:43:00,
2013-04-20 19:48:00,49.4,44.8,30.22,ESE,123,0.0,0.0,84,0.00,,---,0.00,VWS V14.01,2013-04-21 02:48:00,
2013-04-20 19:53:00,49.2,44.6,30.22,ENE,76,0.0,0.0,84,0.00,,---,0.00,VWS V14.01,2013-04-21 02:53:00,
2013-04-20 19:58:00,49.1,44.5,30.22,NNE,15,0.0,0.0,84,0.00,,---,0.00,VWS V14.01,2013-04-21 02:58:00,
2013-04-20 20:04:00,48.8,44.2,30.22,East,80,0.0,0.0,84,0.00,,---,0.00,VWS V14.01,2013-04-21 03:04:00,
2013-04-20 20:09:00,48.3,43.7,30.22,NE,44,0.0,0.0,84,0.00,,---,0.00,VWS V14.01,2013-04-21 03:09:00,
2013-04-20 20:14:00,48.2,43.6,30.22,NNE,23,0.0,0.0,84,0.00,,---,0.00,VWS V14.01,2013-04-21 03:14:00,
2013-04-20 20:19:00,47.9,43.3,30.22,NNE,13,0.0,0.0,84,0.00,,---,0.00,VWS V14.01,2013-04-21 03:19:00,
2013-04-20 20:24:00,47.7,43.1,30.22,NNE,24,0.0,0.0,84,0.00,,---,0.00,VWS V14.01,2013-04-21 03:24:00,
2013-04-20 20:29:00,47.7,43.1,30.22,NE,40,0.0,0.0,84,0.00,,---,0.00,VWS V14.01,2013-04-21 03:29:00,
2013-04-20 20:34:00,47.6,43.3,30.22,ENE,68,0.0,0.0,85,0.00,,---,0.00,VWS V14.01,2013-04-21 03:34:00,
2013-04-20 20:39:00,47.4,43.1,30.23,NE,51,0.0,0.0,85,0.00,,---,0.00,VWS V14.01,2013-04-21 03:39:00,
2013-04-20 20:44:00,47.3,43.0,30.23,ENE,66,0.0,0.0,85,0.00,,---,0.00,VWS V14.01,2013-04-21 03:44:00,
2013-04-20 20:49:00,47.3,43.0,30.23,NE,51,0.0,0.0,85,0.00,,---,0.00,VWS V14.01,2013-04-21 03:49:00,
2013-04-20 20:54:00,47.1,42.8,30.23,NE,38,0.0,0.0,85,0.00,,---,0.00,VWS V14.01,2013-04-21 03:54:00,
2013-04-20 20:59:00,47.1,42.8,30.23,NE,55,0.0,0.0,85,0.00,,---,0.00,VWS V14.01,2013-04-21 03:59:00,
2013-04-20 21:01:00,47.1,42.8,30.23,NNE,31,0.0,0.0,85,0.00,,---,0.00,VWS V14.01,2013-04-21 04:01:00,
2013-04-20 21:02:00,47.0,43.0,30.23,ENE,57,0.0,0.0,86,0.00,,---,0.00,VWS V14.01,2013-04-21 04:02:00,
2013-04-20 21:07:00,47.0,43.0,30.23,NE,35,0.0,0.0,86,0.00,,---,0.00,VWS V14.01,2013-04-21 04:07:00,
2013-04-20 21:12:00,47.0,43.0,30.24,NE,49,0.0,0.0,86,0.00,,---,0.00,VWS V14.01,2013-04-21 04:12:00,
2013-04-20 21:17:00,47.0,43.0,30.24,NE,49,0.0,0.0,86,0.00,,---,0.00,VWS V14.01,2013-04-21 04:17:00,
2013-04-20 21:22:00,47.0,43.0,30.24,NE,34,0.0,0.0,86,0.00,,---,0.00,VWS V14.01,2013-04-21 04:22:00,
2013-04-20 21:27:00,47.0,43.0,30.24,ENE,57,0.0,0.0,86,0.00,,---,0.00,VWS V14.01,2013-04-21 04:27:00,
2013-04-20 21:32:00,47.0,43.0,30.24,NNE,32,0.0,0.0,86,0.00,,---,0.00,VWS V14.01,2013-04-21 04:32:00,
2013-04-20 21:37:00,46.8,42.8,30.24,NNE,32,0.0,0.0,86,0.00,,---,0.00,VWS V14.01,2013-04-21 04:37:00,
2013-04-20 21:42:00,46.8,42.8,30.24,NE,38,0.0,0.0,86,0.00,,---,0.00,VWS V14.01,2013-04-21 04:42:00,
2013-04-20 21:47:00,46.8,42.8,30.24,NE,48,0.0,0.0,86,0.00,,---,0.00,VWS V14.01,2013-04-21 04:47:00,
2013-04-20 21:52:00,46.8,43.1,30.25,East,94,0.0,0.0,87,0.00,,---,0.00,VWS V14.01,2013-04-21 04:52:00,
2013-04-20 21:57:00,47.0,43.3,30.25,NE,40,0.0,0.0,87,0.00,,---,0.00,VWS V14.01,2013-04-21 04:57:00,
2013-04-20 22:02:00,47.0,43.3,30.25,ENE,62,0.0,0.0,87,0.00,,---,0.00,VWS V14.01,2013-04-21 05:02:00,
2013-04-20 22:07:00,46.8,43.1,30.25,ENE,74,0.0,0.0,87,0.00,,---,0.00,VWS V14.01,2013-04-21 05:07:00,
2013-04-20 22:12:00,46.8,43.1,30.25,ENE,72,0.0,0.0,87,0.00,,---,0.00,VWS V14.01,2013-04-21 05:12:00,
2013-04-20 22:17:00,46.8,43.1,30.25,NE,42,0.0,0.0,87,0.00,,---,0.00,VWS V14.01,2013-04-21 05:17:00,
2013-04-20 22:22:00,46.7,43.0,30.25,NE,53,0.0,0.0,87,0.00,,---,0.00,VWS V14.01,2013-04-21 05:22:00,
2013-04-20 22:27:00,46.7,43.0,30.25,ENE,77,0.0,0.0,87,0.00,,---,0.00,VWS V14.01,2013-04-21 05:27:00,
2013-04-20 22:33:00,46.7,43.0,30.25,East,91,0.0,0.0,87,0.00,,---,0.00,VWS V14.01,2013-04-21 05:33:00,
2013-04-20 22:38:00,46.5,42.8,30.25,East,94,0.0,0.0,87,0.00,,---,0.00,VWS V14.01,2013-04-21 05:38:00,
2013-04-20 22:43:00,46.5,42.8,30.25,East,94,0.0,0.0,87,0.00,,---,0.00,VWS V14.01,2013-04-21 05:43:00,
2013-04-20 22:48:00,46.5,42.8,30.25,East,86,0.0,0.0,87,0.00,,---,0.00,VWS V14.01,2013-04-21 05:48:00,
2013-04-20 22:53:00,46.5,42.8,30.25,ESE,118,0.0,0.0,87,0.00,,---,0.00,VWS V14.01,2013-04-21 05:53:00,
2013-04-20 22:58:00,46.5,42.8,30.25,ESE,119,0.0,0.0,87,0.00,,---,0.00,VWS V14.01,2013-04-21 05:58:00,
2013-04-20 23:03:00,46.4,42.8,30.25,ESE,123,0.0,0.0,87,0.00,,---,0.00,VWS V14.01,2013-04-21 06:03:00,
2013-04-20 23:08:00,46.4,42.8,30.25,ESE,123,0.0,0.0,87,0.00,,---,0.00,VWS V14.01,2013-04-21 06:08:00,
2013-04-20 23:13:00,46.4,42.8,30.25,ESE,123,0.0,0.0,87,0.00,,---,0.00,VWS V14.01,2013-04-21 06:13:00,
2013-04-20 23:18:00,46.4,42.8,30.25,ESE,123,0.0,0.0,87,0.00,,---,0.00,VWS V14.01,2013-04-21 06:18:00,
2013-04-20 23:23:00,46.4,42.8,30.25,ESE,111,0.0,0.0,87,0.00,,---,0.00,VWS V14.01,2013-04-21 06:23:00,
2013-04-20 23:28:00,46.5,42.8,30.25,ESE,113,0.0,0.0,87,0.00,,---,0.00,VWS V14.01,2013-04-21 06:28:00,
2013-04-20 23:33:00,46.5,42.8,30.25,ESE,113,0.0,0.0,87,0.00,,---,0.00,VWS V14.01,2013-04-21 06:33:00,
2013-04-20 23:38:00,46.4,42.8,30.25,ESE,113,0.0,0.0,87,0.00,,---,0.00,VWS V14.01,2013-04-21 06:38:00,
2013-04-20 23:43:00,46.4,42.8,30.25,ESE,113,0.0,0.0,87,0.00,,---,0.00,VWS V14.01,2013-04-21 06:43:00,
2013-04-20 23:48:00,46.2,42.5,30.25,SSW,208,0.0,0.0,87,0.00,,---,0.00,VWS V14.01,2013-04-21 06:48:00,
2013-04-20 23:53:00,46.2,42.5,30.25,SSW,200,0.0,0.0,87,0.00,,---,0.00,VWS V14.01,2013-04-21 06:53:00,
2013-04-20 23:58:00,46.2,42.5,30.25,SSW,207,0.0,0.0,87,0.00,,---,0.00,VWS V14.01,2013-04-21 06:58:00,